Location: Oshawa
(43.9000°N, 78.8670°W)
Time: 20:37:03
(UTC-05:00)

Explorer 7 - Visible Passes

Search period start: 21 January 2017 00:00
Search period end: 31 January 2017 00:00
Orbit: 486 x 685 km, 50.3° (Epoch: 21 January)

Date Brightness Start Highest point End Pass type
(mag) Time Alt. Az. Time Alt. Az. Time Alt. Az.
21 Jan 8.1 06:04:54 10° SW 06:09:34 47° SE 06:14:03 10° ENE visible
22 Jan 9.7 04:34:41 16° SE 04:35:25 16° SE 04:38:19 10° E visible
22 Jan 7.4 06:11:08 12° SW 06:15:33 70° SSE 06:20:12 10° ENE visible
23 Jan 9.1 04:41:20 25° SE 04:41:20 25° SE 04:45:08 10° E visible
23 Jan 7.1 06:17:46 17° WSW 06:21:35 84° NNW 06:26:17 10° ENE visible
24 Jan 8.5 04:47:44 36° ESE 04:47:44 36° ESE 04:51:31 10° ENE visible
24 Jan 7.2 06:24:09 18° W 06:27:41 63° NNW 06:32:20 10° ENE visible
25 Jan 8.1 04:53:57 48° E 04:53:57 48° E 04:57:43 10° ENE visible
25 Jan 7.5 06:30:22 17° W 06:33:51 50° NNW 06:38:23 10° ENE visible
26 Jan 7.8 05:00:02 56° ENE 05:00:02 56° ENE 05:03:49 10° ENE visible
26 Jan 7.7 06:36:26 16° WNW 06:40:03 42° NNW 06:44:29 10° ENE visible
27 Jan 7.6 05:06:00 56° NE 05:06:00 56° NE 05:09:52 10° ENE visible
27 Jan 7.9 06:42:24 13° WNW 06:46:17 38° N 06:50:38 10° ENE visible
28 Jan 7.7 05:11:54 51° NNE 05:11:54 51° NNE 05:15:55 10° ENE visible
28 Jan 8.0 06:48:17 11° WNW 06:52:32 37° N 06:56:50 10° ENE visible
29 Jan 7.8 05:17:43 46° N 05:17:43 46° N 05:21:59 10° ENE visible
29 Jan 8.0 06:54:15 10° WNW 06:58:47 39° N 07:03:06 10° ENE visible
30 Jan 10.3 03:47:07 11° ENE 03:47:07 11° ENE 03:47:21 10° ENE visible
30 Jan 7.9 05:23:31 41° NNW 05:23:36 41° N 05:28:07 10° ENE visible
30 Jan 7.9 07:00:24 10° WNW 07:05:01 43° NNE 07:09:24 10° E visible
